EHI
0 0 0 0 0 0 0 0 0 0 0 0 0 0 0 0 0 0 0 0 0 0 0 0 0 0 0 0 0 0 0 0 0 0 0 0 0 0
0 0 0 0 0 0 0 0 0 0 0 0 0 0 0 0 0 0 0 0 0 0 0 0 0 0 0 0 0 0 0 0 0 0 0 0 0 0
0 0 0 0 0 0 0 0 0 0 0 0 0 0 0 0 0 0 0 0 0 0 0 0 0 0 0 0 0 0 0 0 0 0 0 0 0 0
0 0 0 0 0 0 0 0 0 0 0 0 0 0 0 0 0 0 0 0 0 0 0 0 0 0 0 0 0 0 0 0 0 0 0 0 0 0
0 0 0 0 0 0 0 0 0 0 0 0 0 0 0 0 0 0 0 0 0 0 0 0 0 0 0 0 0 0 0 0 0 0 0 0 0 0
0 0 0 0 0 0 0 0 0 0 0 0 0 0 0 0 0 0 0 0 0 0 0 0 0 0 0 0 0 0 0 0 0 0 0 0 0 0
0 0 0 0 0 0 0 0 0 0 0 0 0 0 0 0 0 0 0 0 0 0 0 0 0 0 0 0 0 0 0 0 0 0 0 0 0 0
0 0 0 0 0 0 0 0 0 0 0 0 0 0 0 0 0 0 0 0 0 0 0 0 0 0 0 0 0 0 0 0 0 0 0 0 0 0
0 0 0 0 0 0 0 0 0 0 0 0 0 0 0 0 0 0 0 0 0 0 0 0 0 0 0 0 0 0 0 0 0 0 0 0 0 0
0 0 0 0 0 0 0 0 0 0 0 0 0 0 0 0 0 0 0 0 0 0 0 0 0 0 0 0 0 0 0 0 0 0 0 0 0 0
0 0 0 0 0 0 0 0 0 0 0 0 0 0 0 0 0 0 0 0 0 0 0 0 0 0 0 0 0 0 0 0 0 0 0 0 0 0
0 0 0 0 0 0 0 0 0 0 0 0 0 0 0 0 0 0 0 0 0 0 0 0 0 0 0 0 0 0 0 0 0 0 0 0 0 0
0 0 0 0 0 0 0 0 0 0 0 0 0 0 0 0 0 0 0 0 0 0 0 0 0 0 0 0 0 0 0 0 0 0 0 0 0 0
0 0 0 0 0 0 0 0 0 0 0 0 0 0 0 0 0 0 0 0 0 0 0 0 0 0 0 0 0 0 0 0 0 0 0 0 0 0
0 0 0 0 0 0 0 0 0 0 0 0 0 0 0 0 0 0 0 0 0 0 0 0 0 0 0 0 0 0 0 0 0 0 0 0 0 0
0 0 0 0 0 0 0 0 0 0 0 0 0 0 0 0 0 0 0 0 0 0 0 0 0 0 0 0 0 0 0 0 0 0 0 0 0 0
0 0 0 0 0 0 0 0 0 0 0 0 0 0 0 0 0 0 0 0 0 0 0 0 0 0 0 0 0 0 0 0 0 0 0 0 0 0
0 0 0 0 0 0 0 0 0 0 0 0 0 0 0 0 0 0 0 0 0 0 0 0 0 0 0 0 0 0 0 0 0 0 0 0 0 0
0 0 0 0 0 0 0 0 0 0 0 0 0 0 0 0 0 0 0 0 0 0 0 0 0 0 0 0 0 0 0 0 0 0 0 0 0 0
0 0 0 0 0 0 0 0 0 0 0 0 0 0 0 0 0 0 0 0 0 0 0 0 0 0 0 0 0 0 0 0 0 0 0 0 0 0
0 0 0 0 0 0 0 0 0 0 0 0 0 0 0 0 0 0 0 0 0 0 0 0 0 0 0 0 0 0 0 0 0 0 0 0 0 0
0 0 0 0 0 0 0 0 0 0 0 0 0 0 0 0 0 0 0 0 0 0 0 0 0 0 0 0 0 0 0 0 0 0 0 0 0 0
0 0 0 0 0 0 0 0 0 0 0 0 0 0 0 0 0 0 0 0 0 0 0 0 0 0 0 0 0 0 0 0 0 0 0 0 0 0
Wind_Speed
1 1 1 1 1 1 1 1 2 4 5 3 2 2 2 2 4 3 3 9 11 11 12 12 13 13 13 14 14 14 15 15 15 15 16 17 17 18
0 1 1 1 1 1 1 1 1 3 5 3 3 3 3 4 6 4 4 11 11 12 12 13 13 13 14 14 14 14 15 14 14 15 16 16 16 16
1 1 1 1 1 1 1 1 2 1 4 5 3 3 3 4 5 4 4 4 5 11 12 12 13 13 13 14 14 14 15 15 14 15 16 16 17 17
1 1 2 2 1 1 1 2 2 2 3 6 5 4 4 5 5 6 5 5 5 10 12 13 12 13 13 13 14 14 14 15 15 15 16 16 17 17
1 1 2 2 2 2 2 2 2 3 2 4 5 4 4 4 5 6 6 5 6 7 11 12 12 13 13 14 14 14 14 14 15 15 16 17 17 18
1 2 2 2 2 2 2 2 2 3 3 3 4 4 4 4 4 5 6 4 5 6 8 10 11 12 14 14 14 14 14 14 15 16 16 16 17 18
2 2 2 3 4 3 2 2 2 2 3 3 4 5 5 4 4 4 6 6 5 4 5 5 6 5 7 11 12 13 14 14 15 16 17 17 17 18
2 2 2 3 4 5 5 6 5 4 4 4 4 5 6 5 5 5 6 6 6 3 4 6 4 5 5 5 11 14 14 15 16 17 17 17 17 18
1 1 2 3 4 2 4 6 6 7 7 5 5 6 6 6 6 7 6 6 7 6 5 7 4 6 5 7 13 14 15 15 16 17 17 18 18 18
2 1 2 2 3 4 3 3 3 4 6 4 4 5 5 5 5 6 7 7 7 5 3 6 5 5 7 6 12 14 15 15 16 17 18 18 18 18
2 2 2 2 5 6 4 4 4 5 6 7 8 8 10 10 8 5 5 5 6 5 2 4 5 6 6 6 7 12 14 16 17 17 18 18 18 17
2 3 4 5 6 7 4 3 5 5 5 6 6 7 6 6 8 4 4 5 6 5 3 3 4 5 6 4 4 5 7 12 16 17 17 17 17 10
2 2 3 6 7 8 7 4 6 7 5 5 4 4 4 3 4 3 3 4 5 6 4 4 4 4 5 7 5 5 5 6 7 9 12 16 17 12
2 2 3 7 8 8 6 7 9 8 3 4 4 4 4 4 4 5 5 5 5 7 7 5 5 5 6 8 7 5 5 5 5 6 6 12 13 15
2 5 6 7 7 5 6 8 7 3 3 4 4 4 4 5 5 5 5 5 6 6 5 5 5 6 6 7 7 7 7 6 5 5 6 6 7 7
3 4 6 6 5 5 5 4 3 3 3 3 4 4 4 4 4 4 5 5 5 5 4 4 5 6 6 7 7 8 6 6 6 6 7 7 6 6
3 2 2 2 2 2 3 3 2 3 3 3 3 4 4 4 4 4 4 4 5 6 6 5 5 5 6 7 7 7 7 6 6 6 7 7 6 6
3 1 2 2 2 3 3 3 3 3 3 3 4 4 4 5 5 4 4 4 5 6 6 6 6 6 5 4 6 6 6 6 6 6 6 7 8 6
2 1 2 2 3 3 3 3 3 3 3 3 4 4 4 5 5 5 5 5 5 6 6 5 5 6 7 8 6 4 5 7 7 6 6 6 8 8
1 2 2 2 3 3 3 3 3 3 3 3 4 4 4 5 5 5 5 6 6 6 6 5 4 5 6 7 7 7 8 7 7 8 7 6 6 8
2 2 2 2 3 3 3 3 3 3 4 4 4 4 4 5 5 5 5 8 7 6 7 7 6 10 6 5 6 7 6 7 9 8 8 7 7 6
2 2 2 3 3 3 3 3 4 4 4 4 4 4 4 5 5 6 5 6 6 6 7 7 7 6 4 5 7 9 9 9 9 11 10 8 6 5
2 3 3 3 3 3 3 4 4 4 4 4 4 4 4 5 5 5 5 5 6 6 7 7 6 5 5 5 7 7 9 10 8 8 6 8 10 11
Wind_Direction
261 263 262 273 277 274 258 198 229 284 290 286 306 307 314 310 312 308 296 307 309 310 312 312 311 310 311 311 311 310 308 307 305 303 303 302 301 299
295 311 301 296 296 289 264 255 231 242 274 283 289 297 313 317 312 311 299 307 306 308 309 310 309 310 311 311 311 311 311 311 309 305 302 301 300 299
321 306 295 298 301 300 288 272 269 252 272 287 289 307 316 314 311 304 298 293 294 303 305 306 307 309 310 311 311 311 312 310 308 307 304 302 302 301
300 301 291 304 312 304 295 288 283 273 269 288 299 309 305 307 306 304 308 309 300 304 305 305 306 308 309 309 310 311 310 309 307 305 304 303 302 301
310 306 306 318 311 308 306 300 294 299 292 285 294 302 302 307 310 306 302 301 302 307 310 307 307 309 308 306 306 306 306 306 305 304 304 303 301 299
340 333 326 314 302 303 302 295 296 299 299 294 295 299 299 302 307 308 307 304 299 306 307 305 304 306 306 304 304 304 304 305 304 304 304 302 300 298
337 331 334 330 324 320 316 310 312 302 302 298 296 298 299 306 305 303 301 304 294 293 300 299 299 296 298 298 299 300 303 306 307 307 305 303 300 297
316 324 329 330 331 337 331 324 313 301 294 289 290 291 294 297 298 301 304 308 303 298 303 297 294 292 290 287 299 304 305 307 308 307 306 305 303 300
306 321 326 334 340 341 336 337 332 318 302 285 283 286 290 295 299 300 297 293 287 294 301 292 291 289 293 299 304 307 309 310 309 308 307 307 305 304
311 309 311 324 328 333 331 325 311 307 302 299 279 285 290 293 286 286 290 294 288 285 289 287 295 294 300 295 302 307 310 311 312 311 309 309 308 305
323 325 329 326 327 334 333 319 316 312 313 311 309 306 310 313 314 311 305 302 298 297 293 283 293 302 296 286 295 307 311 312 313 313 313 313 312 309
330 333 336 332 334 339 336 323 318 319 324 326 323 321 319 319 324 320 310 306 302 298 305 306 300 316 306 288 295 305 307 311 314 314 315 315 315 310
335 335 328 331 334 334 334 327 317 322 325 327 323 322 325 328 329 324 312 297 294 287 297 310 298 298 284 295 299 298 301 305 309 308 311 315 316 314
326 321 320 326 330 334 335 330 332 336 333 328 326 324 326 325 322 318 311 301 284 281 290 292 284 292 294 295 297 299 301 303 306 303 306 312 312 310
322 319 323 328 332 334 333 335 342 345 333 326 321 319 318 316 317 314 310 304 298 293 293 290 287 289 285 288 295 299 306 303 299 306 310 310 307 308
340 328 330 334 336 332 335 339 341 333 331 321 317 315 318 322 323 323 321 322 317 311 303 300 299 297 294 289 290 296 301 299 308 309 307 303 301 298
325 326 330 333 333 330 332 333 336 341 335 326 322 322 321 321 320 322 319 320 318 316 319 320 311 295 282 283 290 291 296 296 299 308 309 305 299 295
327 325 320 320 318 322 326 328 329 330 327 325 322 319 317 315 314 317 319 322 320 317 316 318 322 322 316 289 261 286 299 299 304 304 301 304 304 302
333 318 308 309 311 315 315 315 314 314 316 315 314 313 312 312 313 316 320 321 318 314 313 315 321 325 323 319 302 280 299 305 308 306 301 297 299 303
321 306 303 305 307 309 310 310 310 315 315 312 311 310 311 312 312 315 317 318 316 313 312 314 317 317 308 303 299 298 295 295 303 306 305 299 290 291
304 301 302 305 306 305 306 307 306 307 310 309 308 307 308 308 308 311 312 314 315 311 313 312 305 309 299 294 296 301 303 299 295 297 304 305 308 311
298 298 301 301 302 302 306 309 309 309 310 307 307 306 306 304 305 308 309 310 309 307 306 305 307 313 311 306 305 306 310 315 309 301 292 288 299 305
296 296 298 299 301 303 304 303 303 303 306 306 305 304 304 305 305 304 305 306 307 308 311 311 313 312 308 305 305 307 311 316 318 320 313 309 302 295